This is the latest recevied weather packets stored in our database for station/object S54A-11. If no packets are shown the sender has not sent any weather packets the latest 1 day(s).
| Time | Temp. | Humidity | Pressure | Rain* | Wind** | Luminosity | Snow |
|---|---|---|---|---|---|---|---|
| 1778045362 | 14.44° C | 56% | 1012.5 hPa | - | - | - | - |
| 1778044462 | 14.44° C | 57% | 1012.5 hPa | - | - | - | - |
| 1778043562 | 14.44° C | 58% | 1012.5 hPa | - | - | - | - |
| 1778042662 | 13.89° C | 57% | 1012.4 hPa | - | - | - | - |
| 1778041762 | 14.44° C | 57% | 1012.3 hPa | - | - | - | - |
| 1778040862 | 14.44° C | 57% | 1012.4 hPa | - | - | - | - |
| 1778039962 | 14.44° C | 58% | 1012.4 hPa | - | - | - | - |
| 1778038161 | 14.44° C | 59% | 1012.3 hPa | - | - | - | - |
| 1778037261 | 14.44° C | 59% | 1012.4 hPa | - | - | - | - |
| 1778036361 | 14.44° C | 61% | 1012.5 hPa | - | - | - | - |
| 1778035461 | 14.44° C | 62% | 1012.5 hPa | - | - | - | - |
| 1778034561 | 14.44° C | 61% | 1012.7 hPa | - | - | - | - |
| 1778033661 | 13.89° C | 63% | 1012.5 hPa | - | - | - | - |
| 1778032761 | 14.44° C | 62% | 1012.7 hPa | - | - | - | - |
| 1778031861 | 14.44° C | 60% | 1012.7 hPa | - | - | - | - |
| 1778030961 | 14.44° C | 60% | 1012.6 hPa | - | - | - | - |
| 1778030061 | 14.44° C | 61% | 1012.5 hPa | - | - | - | - |
| 1778029161 | 13.89° C | 59% | 1012.4 hPa | - | - | - | - |
| 1778028261 | 13.89° C | 60% | 1012.3 hPa | - | - | - | - |
| 1778027361 | 13.89° C | 62% | 1012.4 hPa | - | - | - | - |
| 1778017460 | 13.89° C | 59% | 1013.1 hPa | - | - | - | - |
| 1778016560 | 13.89° C | 59% | 1013.1 hPa | - | - | - | - |
| 1778015660 | 13.89° C | 55% | 1013.3 hPa | - | - | - | - |
| 1778014760 | 13.89° C | 55% | 1013.2 hPa | - | - | - | - |
| 1778013860 | 13.89° C | 55% | 1013.5 hPa | - | - | - | - |
* Rain since midnight (hover to see other rain measurements)
** Current wind speed in m/s (hover to see current wind gust speed)